Weather History for Kenansville, NC

Change the Weather History Date:

Monday, October 8, 2012

  Actual Average (KGSB) Record (KGSB)
Temperature  
Mean Temperature 52 °F -  
Max Temperature 55 °F 75 °F 90 °F (2007)
Min Temperature 50 °F 54 °F 42 °F (2001)
Degree Days  
Heating Degree Days 12    
Growing Degree Days 2 (Base 50)    
Moisture  
Dew Point 50 °F    
Average Humidity 93    
Maximum Humidity 100    
Minimum Humidity 82    
Precipitation  
Precipitation 0.68 in - - ()
Sea Level Pressure  
Sea Level Pressure 30.13 in    
Wind  
Wind Speed 7 mph (NNE)    
Max Wind Speed 12 mph    
Max Gust Speed 17 mph    
Visibility 8 miles    
Events Rain    
Averages and records for this station are not official NWS values.
T = Trace of Precipitation, MM = Missing Value Source: NWS Daily Summary

Daily Weather History Graph

Daily Weather History Graph

Search for Another Location

Airport:

Trip Planner

Search our weather history database for the weather conditions in past years. The results will help you decide how hot, cold, wet, or windy it might be!

Date:

Astronomy

Oct. 08, 2012 Rise Set
Actual Time 7:12 AM EDT 6:45 PM EDT
Civil Twilight 6:47 AM EDT 7:10 PM EDT
Nautical Twilight 6:17 AM EDT 7:40 PM EDT
Astronomical Twilight 5:48 AM EDT 8:09 PM EDT
Moon 12:05 AM EDT (10/8) 2:19 PM EDT (10/8)
Length of Visible Light 12h 23m
Length of Day
11h 33m
Waning Gibbous, 46% of the Moon is Illuminated
Oct 8
Waning Gibbous
Oct 15
New
Oct 21
First Quarter
Oct 29
Full
Nov 6
Last Quarter

Hourly Weather History & Observations

Time (EDT) Temp. Dew Point Humidity Pressure Visibility Wind Dir Wind Speed Gust Speed Precip Events Conditions
12:15 AM 55.4 °F 51.8 °F 88% 30.13 in 10.0 mi North 10.4 mph - N/A   Overcast
12:35 AM 55.4 °F 50.0 °F 82% 30.13 in 10.0 mi North 10.4 mph - N/A   Overcast
12:55 AM 53.6 °F 50.0 °F 88% 30.12 in 10.0 mi North 9.2 mph - N/A   Overcast
1:15 AM 53.6 °F 51.8 °F 94% 30.12 in 10.0 mi North 9.2 mph - N/A   Overcast
1:35 AM 53.6 °F 51.8 °F 94% 30.13 in 10.0 mi North 6.9 mph - N/A   Overcast
1:55 AM 53.6 °F 50.0 °F 88% 30.13 in 10.0 mi North 6.9 mph - N/A   Overcast
2:15 AM 53.6 °F 50.0 °F 88% 30.13 in 10.0 mi North 5.8 mph 9.2 mph N/A   Mostly Cloudy
2:35 AM 53.6 °F 50.0 °F 88% 30.13 in 10.0 mi North 5.8 mph - N/A   Mostly Cloudy
2:55 AM 53.6 °F 50.0 °F 88% 30.12 in 10.0 mi NNE 8.1 mph - N/A   Overcast
3:15 AM 53.6 °F 50.0 °F 88% 30.12 in 10.0 mi NE 4.6 mph - N/A   Mostly Cloudy
3:35 AM 53.6 °F 50.0 °F 88% 30.13 in 10.0 mi NNE 3.5 mph - N/A   Mostly Cloudy
3:55 AM 51.8 °F 50.0 °F 94% 30.13 in 10.0 mi NNE 6.9 mph - N/A   Scattered Clouds
4:15 AM 51.8 °F 48.2 °F 88% 30.13 in 10.0 mi NNE 6.9 mph - N/A   Scattered Clouds
4:35 AM 51.8 °F 48.2 °F 88% 30.13 in 10.0 mi NNE 4.6 mph - N/A   Scattered Clouds
4:55 AM 51.8 °F 48.2 °F 88% 30.13 in 10.0 mi NNE 6.9 mph - N/A   Clear
5:15 AM 51.8 °F 48.2 °F 88% 30.13 in 10.0 mi NNE 6.9 mph - N/A   Mostly Cloudy
5:55 AM 51.8 °F 48.2 °F 88% 30.15 in 10.0 mi NNE 4.6 mph - N/A   Mostly Cloudy
6:15 AM 51.8 °F 48.2 °F 88% 30.15 in 10.0 mi NNE 6.9 mph - N/A   Overcast
6:35 AM 51.8 °F 48.2 °F 88% 30.15 in 10.0 mi NNE 4.6 mph - N/A   Mostly Cloudy
6:55 AM 51.8 °F 48.2 °F 88% 30.16 in 10.0 mi NNE 6.9 mph - N/A   Overcast
7:15 AM 51.8 °F 48.2 °F 88% 30.16 in 10.0 mi NE 8.1 mph - N/A   Overcast
7:35 AM 51.8 °F 46.4 °F 82% 30.17 in 10.0 mi NE 5.8 mph - N/A   Overcast
7:55 AM 51.8 °F 46.4 °F 82% 30.17 in 10.0 mi NNE 6.9 mph - N/A   Overcast
8:15 AM 51.8 °F 48.2 °F 88% 30.19 in 10.0 mi NNE 4.6 mph - N/A   Overcast
8:35 AM 51.8 °F 48.2 °F 88% 30.20 in 10.0 mi NNE 8.1 mph - N/A Rain Light Rain
8:55 AM 51.8 °F 48.2 °F 88% 30.19 in 7.0 mi NNE 3.5 mph - N/A   Overcast
9:15 AM 51.8 °F 50.0 °F 94% 30.19 in 4.0 mi NNE 5.8 mph - N/A Rain Light Rain
9:35 AM 51.8 °F 50.0 °F 94% 30.19 in 4.0 mi NNE 3.5 mph - 0.02 in Rain Light Rain
9:55 AM 51.8 °F 50.0 °F 94% 30.19 in 5.0 mi NNE 3.5 mph - 0.04 in Rain Light Rain
10:15 AM 51.8 °F 50.0 °F 94% 30.19 in 4.0 mi NE 4.6 mph - 0.02 in Rain Light Rain
10:55 AM 51.8 °F 51.8 °F 100% 30.18 in 5.0 mi NNE 4.6 mph - 0.03 in   Overcast
11:15 AM 51.8 °F 51.8 °F 100% 30.17 in 5.0 mi North 8.1 mph - N/A   Overcast
11:35 AM 51.8 °F 51.8 °F 100% 30.17 in 7.0 mi NNE 6.9 mph - N/A   Overcast
11:55 AM 51.8 °F 51.8 °F 100% 30.17 in 7.0 mi NNE 5.8 mph - N/A   Overcast
12:15 PM 53.6 °F 51.8 °F 94% 30.16 in 7.0 mi ENE 4.6 mph - N/A   Overcast
12:35 PM 53.6 °F 51.8 °F 94% 30.15 in 7.0 mi NE 6.9 mph - N/A   Overcast
12:55 PM 53.6 °F 51.8 °F 94% 30.14 in 10.0 mi NE 4.6 mph - N/A   Overcast
1:15 PM 53.6 °F 51.8 °F 94% 30.13 in 10.0 mi NE 3.5 mph - N/A   Overcast
1:35 PM 53.6 °F 51.8 °F 94% 30.12 in 10.0 mi NNE 5.8 mph - N/A   Overcast
1:55 PM 53.6 °F 51.8 °F 94% 30.11 in 10.0 mi NNE 4.6 mph - N/A   Overcast
2:15 PM 53.6 °F 51.8 °F 94% 30.11 in 10.0 mi NNW 5.8 mph - N/A   Overcast
2:35 PM 53.6 °F 51.8 °F 94% 30.11 in 10.0 mi North 6.9 mph - N/A   Overcast
2:55 PM 53.6 °F 51.8 °F 94% 30.09 in 10.0 mi North 8.1 mph - N/A   Overcast
3:15 PM 53.6 °F 51.8 °F 94% 30.10 in 7.0 mi North 9.2 mph - N/A   Overcast
3:35 PM 53.6 °F 51.8 °F 94% 30.10 in 7.0 mi North 11.5 mph - N/A   Overcast
4:15 PM 51.8 °F 50.0 °F 94% 30.09 in 3.0 mi North 9.2 mph 17.3 mph N/A   Overcast
4:35 PM 51.8 °F 50.0 °F 94% 30.09 in 3.0 mi North 10.4 mph - N/A Rain Light Rain
4:55 PM 51.8 °F 50.0 °F 94% 30.12 in 7.0 mi WNW 8.1 mph - 0.01 in   Overcast
5:15 PM 51.8 °F 50.0 °F 94% 30.11 in 5.0 mi North 6.9 mph - 0.02 in Rain Rain
5:35 PM 50.0 °F 50.0 °F 100% 30.10 in 5.0 mi North 9.2 mph - 0.10 in Rain Heavy Rain
5:55 PM 50.0 °F 50.0 °F 100% 30.10 in 5.0 mi North 9.2 mph - 0.19 in Rain Rain
6:15 PM 50.0 °F 50.0 °F 100% 30.08 in 3.0 mi NNE 8.1 mph - 0.10 in Rain Heavy Rain
6:35 PM 50.0 °F 50.0 °F 100% 30.10 in 10.0 mi North 6.9 mph - 0.13 in Rain Light Rain
6:55 PM 50.0 °F 50.0 °F 100% 30.11 in 7.0 mi North 4.6 mph - 0.18 in Rain Rain
7:15 PM 50.0 °F 50.0 °F 100% 30.11 in 5.0 mi NNW 4.6 mph - 0.07 in Rain Rain
7:35 PM 50.0 °F 50.0 °F 100% 30.09 in 4.0 mi NE 5.8 mph - 0.15 in Rain Heavy Rain
7:55 PM 50.0 °F 50.0 °F 100% 30.12 in 5.0 mi WNW 10.4 mph - 0.22 in Rain Heavy Rain
8:15 PM 50.0 °F 50.0 °F 100% 30.11 in 10.0 mi North 9.2 mph - 0.01 in Rain Light Rain
8:35 PM 51.8 °F 50.0 °F 94% 30.10 in 10.0 mi North 9.2 mph - 0.01 in   Overcast
8:55 PM 51.8 °F 50.0 °F 94% 30.09 in 10.0 mi NNE 9.2 mph - 0.01 in   Overcast
9:15 PM 51.8 °F 50.0 °F 94% 30.11 in 10.0 mi North 6.9 mph - N/A   Overcast
9:35 PM 51.8 °F 50.0 °F 94% 30.11 in 10.0 mi North 6.9 mph - N/A   Overcast
10:15 PM 51.8 °F 50.0 °F 94% 30.12 in 10.0 mi North 8.1 mph - N/A   Overcast
10:35 PM 51.8 °F 50.0 °F 94% 30.12 in 10.0 mi North 8.1 mph - N/A   Overcast
10:55 PM 51.8 °F 50.0 °F 94% 30.11 in 10.0 mi North 8.1 mph - N/A   Overcast
11:15 PM 51.8 °F 50.0 °F 94% 30.11 in 10.0 mi North 5.8 mph - N/A   Overcast
11:35 PM 51.8 °F 50.0 °F 94% 30.11 in 10.0 mi North 8.1 mph - N/A   Overcast
11:55 PM 51.8 °F 50.0 °F 94% 30.10 in 7.0 mi North 8.1 mph - N/A   Overcast